This demonstration page uses our WeatherBlox Daily Observations layout. Learn more.

Left ArrowRight Arrow

39.92423, -83.80882

Hourly Observations for May 18, 2018

Temp ( °F °C ) Dew Point ( °F °C ) Humidity (%) Winds ( mph kmh ) Pressure ( in mb ) Visibility ( mi km ) Precip ( " mm )
12:56 am 00:56 Mostly Cloudy 65 18.3 57 13.9 76 76 NE 14 22 30.01 1016 10 16.0934 0 0.0254
1:56 am 01:56 Mostly Clear 63 17.2 56 13.3 78 78 NE 12 19 29.99 1016 10 16.0934 0 0
2:56 am 02:56 Clear 63 17.2 55 12.8 76 76 NE 13 20 29.97 1015 10 16.0934 0 0
3:56 am 03:56 Mostly Cloudy 62 16.7 55 12.8 78 78 NE 9 15 29.97 1015 10 16.0934 0 0
4:56 am 04:56 Mostly Cloudy 61 16.1 55 12.8 81 81 NE 14 22 29.96 1015 10 16.0934 0 0
5:56 am 05:56 Mostly Cloudy 61 16.1 55 12.8 81 81 ENE 12 19 29.98 1015 10 16.0934 0 0
6:19 am 06:19 Mostly Cloudy 61 16 55 13 83 83 ENE 12 19 30 1016 10 16.0934 0 0
6:52 am 06:52 Cloudy with Light Rain 61 16 55 13 83 83 NE 12 19 30 1016 10 16.0934 0 0.0254
6:56 am 06:56 Cloudy with Light Rain 61 16.1 56 13.3 84 84 NE 10 17 29.99 1016 10 16.0934 0 0.0254
7:37 am 07:37 Cloudy 63 17 57 14 83 83 ENE 12 19 30 1016 10 16.0934 0 0.0254
7:56 am 07:56 Cloudy 63 17.2 58 14.4 84 84 ENE 9 15 30 1016 10 16.0934 0 0.0254
8:56 am 08:56 Cloudy 65 18.3 60 15.6 84 84 E 13 20 30.01 1016 10 16.0934 0 0
9:56 am 09:56 Cloudy 67 19.4 62 16.7 84 84 E 17 28 30 1016 10 16.0934 0 0
10:43 am 10:43 Cloudy with Light Rain 66 19 63 17 88 88 E 17 28 30 1016 9 14.48406 0 0.0254
10:56 am 10:56 Cloudy with Heavy Rain 65 18.3 62 16.7 90 90 E 14 22 30.01 1016 3 4.82802 0.01 0.254
11:01 am 11:01 Cloudy with Rain 64 18 63 17 94 94 E 15 24 30 1016 5 8.0467 0 0.0254
11:15 am 11:15 Cloudy with Light Rain 64 18 63 17 94 94 ENE 15 24 30 1016 10 16.0934 0.02 0.508
11:56 am 11:56 Cloudy 67 19.4 64 17.8 91 91 E 16 26 30.01 1016 10 16.0934 0.06 1.524
12:56 pm 12:56 Cloudy with Light Rain 68 20 64 17.8 87 87 E 15 24 30 1016 10 16.0934 0 0.0254
1:40 pm 13:40 Cloudy 70 21 64 18 83 83 E 20 31 29.97 1015 10 16.0934 0 0.0254
1:56 pm 13:56 Cloudy with Light Rain 69 20.6 64 17.8 84 84 E 14 22 29.99 1016 10 16.0934 0 0.0254
2:56 pm 14:56 Cloudy with Light Rain 70 21.1 65 18.3 84 84 E 15 24 29.98 1015 10 16.0934 0 0.0254
3:19 pm 15:19 Cloudy with Light Rain 70 21 64 18 83 83 E 17 28 29.94 1014 10 16.0934 0 0.0254
3:51 pm 15:51 Cloudy 70 21 64 18 83 83 E 15 24 29.94 1014 10 16.0934 0 0.0254
3:56 pm 15:56 Cloudy 70 21.1 65 18.3 84 84 E 15 24 29.96 1015 10 16.0934 0 0.0254
4:56 pm 16:56 Cloudy 71 21.7 64 17.8 79 79 E 14 22 29.94 1014 10 16.0934 0 0
5:56 pm 17:56 Cloudy 71 21.7 64 17.8 79 79 E 13 20 29.94 1014 10 16.0934 0 0
6:56 pm 18:56 Cloudy 71 21.7 64 17.8 79 79 E 13 20 29.93 1014 10 16.0934 0 0
7:56 pm 19:56 Cloudy with Light Rain 69 20.6 65 18.3 87 87 E 13 20 29.93 1014 10 16.0934 0 0.0254
8:43 pm 20:43 Cloudy with Light Rain 70 21 64 18 83 83 E 9 15 29.91 1013 7 11.26538 0 0.0254
8:56 pm 20:56 Cloudy with Light Rain 68 20 65 18.3 90 90 E 9 15 29.93 1014 6 9.65604 0.01 0.254
9:42 pm 21:42 Cloudy with Light Rain 68 20 64 18 88 88 E 10 17 29.91 1013 10 16.0934 0.01 0.254
9:56 pm 21:56 Cloudy with Light Rain 67 19.4 65 18.3 93 93 E 12 19 29.93 1014 10 16.0934 0.01 0.254
10:24 pm 22:24 Mostly Cloudy with Light Rain 66 19 64 18 94 94 E 14 22 29.91 1013 10 16.0934 0 0
10:56 pm 22:56 Mostly Cloudy with Light Rain 66 18.9 64 17.8 93 93 E 12 19 29.93 1014 10 16.0934 0 0
11:56 pm 23:56 Cloudy 66 18.9 64 17.8 93 93 E 14 22 29.93 1013 10 16.0934 0 0

Powered by AerisWeather